Regional Weather Roundup
Issued by NWS

Home | Current Version | Previous Version | Text Only | Print | Product List | Glossary Off
Versions: 1 2 3 4 5 6 7 8 9 10 11 12 13 14 15 16 17 18 19 20 21 22 23 24 25 26 27 28 29 30 31 32 33 34 35 36 37 38 39 40 41 42 43 44 45 46 47 48 49 50

000
ASUS45 KABQ 220010
RWRNM
NEW MEXICO REGIONAL WEATHER ROUNDUP
NATIONAL WEATHER SERVICE ALBUQUERQUE NM
500 PM MST SUN JAN 21 2018

NOTE: "FAIR" MEANS FEW OR NO CLOUDS BELOW 12,000 FEET AGL WITH NO
       SIGNIFICANT WEATHER OR OBSTRUCTIONS TO VISION.

      THIS PRODUCT IS RELEASED AS TWO VERSIONS.  ONE VERSION NEAR
      THE TOP OF THE HOUR CONTAINING PRELIMINARY DATA FROM ALBUQUERQUE
      AND OTHER STATIONS.  A FINAL VERSION WITH ADDITIONAL DATA IS
      ISSUED ABOUT 10 MINUTES AFTER THE HOUR.

NMZ501-503-504-510>518-220100-
NORTHWEST PLATEAU/NORTHCENTRAL MOUNTAINS

CITY           SKY/WX    TMP DP  RH WIND       PRES   REMARKS
FARMINGTON     FAIR      32  15  49 W26G33    29.97R WCI  18
6HR MIN TEMP:  29; 6HR MAX TEMP:  35;

LOS ALAMOS     MOCLDY    28  10  45 W8G23     29.85R WCI  20
SANTA FE       MOCLDY    29  16  58 W20G29    29.86R WCI  16
6HR MIN TEMP:  27; 6HR MAX TEMP:  31;

TAOS           CLOUDY    24  18  77 SW15      29.85R WCI  11
ANGEL FIRE     LGT SNOW  18  13  80 W21G37    29.76R VSB 1   WCI   2

$$
NMZ402-403-502-505>509-220100-
WESTCENTRAL MOUNTAINS/SOUTHWEST MOUNTAINS

CITY           SKY/WX    TMP DP  RH WIND       PRES   REMARKS
GALLUP         MOCLDY    28  17  63 W9        30.05R WCI  19
6HR MIN TEMP:  26; 6HR MAX TEMP:  31; 6HR PCP: TRACE;

GRANTS         FAIR      29  13  53 W20G30    30.01R WCI  16
SILVER CITY    FAIR      38  15  38 W17       30.04R WCI  29

$$
NMZ407-409-411-412-220100-
SOUTHERN DESERTS

CITY           SKY/WX    TMP DP  RH WIND       PRES   REMARKS
DEMING         FAIR      45  14  28 W23G33    30.04R
6HR MIN TEMP:  43; 6HR MAX TEMP:  48;

LAS CRUCES     FAIR      46  12  25 W28G35    30.00R
HOLLOMAN AFB   FAIR      48   8  19 NW21      29.99R
ALAMOGORDO     HAZE      48   5  17 NW16G23   29.98R VSB 3/4
T OR C         FAIR      43  10  26 NW20G31   29.96R
6HR MIN TEMP:  43; 6HR MAX TEMP:  49;


$$
NMZ519>523-220100-
CENTRAL VALLEYS/CENTRAL HIGHLANDS

CITY           SKY/WX    TMP DP  RH WIND       PRES   REMARKS
ALBUQUERQUE    MOCLDY    38  15  39 NW18G25   29.96R WCI  28
6HR MIN TEMP:  34; 6HR MAX TEMP:  42;

DOUBLE EAGLE   PTCLDY    32  16  51 NW24      29.94R WCI  19
MORIARTY ARPT  FAIR      31  19  61 W22G32    29.91R WCI  19
6HR MIN TEMP:  31; 6HR MAX TEMP:  39;

CLINES CORNERS MOCLDY    25  15  66 W33G46    29.85R WCI   7
6HR MIN TEMP:  24; 6HR MAX TEMP:  31; 6HR PCP: TRACE;

BELEN          FAIR      36  11  36 W21G32    29.98R WCI  25
6HR MIN TEMP:  36; 6HR MAX TEMP:  43;

SOCORRO        FAIR      38   8  28 NW15G35   29.98R WCI  30
6HR MIN TEMP:  38; 6HR MAX TEMP:  42;


$$
NMZ524>526-539-540-220100-
SOUTHCENTRAL MOUNTAINS

CITY           SKY/WX    TMP DP  RH WIND       PRES   REMARKS
RUIDOSO        FAIR      30   5  34 W20G25    29.91R WCI  18

$$
NMZ527>531-220100-
NORTHEAST HIGHLANDS/NORTHEAST PLAINS

CITY           SKY/WX    TMP DP  RH WIND       PRES   REMARKS
LAS VEGAS      FAIR      30   7  37 N12       29.77R WCI  20
6HR MIN TEMP:  30; 6HR MAX TEMP:  38;

RATON          FAIR      26  15  63 N14       29.77R WCI  14
6HR MIN TEMP:  26; 6HR MAX TEMP:  35; 6HR PCP: TRACE;

CLAYTON        FAIR      30  20  66 N24G32    29.77R WCI  16
6HR MIN TEMP:  30; 6HR MAX TEMP:  39; 6HR PCP: TRACE;


$$
NMZ532>537-220100-
EASTCENTRAL PLAINS

CITY           SKY/WX    TMP DP  RH WIND       PRES   REMARKS
TUCUMCARI      CLOUDY    43  24  47 N18       29.77R
6HR MIN TEMP:  43; 6HR MAX TEMP:  53;

CANNON AFB     FAIR      43  12  28 W28G38    29.80R
6HR MIN TEMP:  43; 6HR MAX TEMP:  48;

CLOVIS AIRPORT FAIR      44  11  26 W24G31    29.80R

$$
NMZ028-029-538-220100-
SOUTHEAST PLAINS

CITY           SKY/WX    TMP DP  RH WIND       PRES   REMARKS
ROSWELL        FAIR      47  13  25 W17G28    29.87S
6HR MIN TEMP:  47; 6HR MAX TEMP:  54;

ARTESIA        FAIR      48  14  25 NW24G33   29.91R
CARLSBAD       FAIR      51  11  20 W23G33    29.91R
6HR MIN TEMP:  51; 6HR MAX TEMP:  55;

HOBBS          CLEAR     50   7  17 W22G29    29.89R


$$




USA.gov is the U.S. government's official web portal to all federal, state and local government web resources and services.